Oxford, CT

5:02 PM EDT on April 25, 2018 (GMT -0400)
Waterbury-Oxford

Weather History for KOXC - October, 2014

Change the Weather History Date:

Monday, October 13, 2014

  Actual Average Record
Temperature  
Mean Temperature 48 °F -  
Max Temperature 59 °F 58 °F 73 °F (2001)
Min Temperature 37 °F 40 °F 26 °F (2012)
Degree Days  
Heating Degree Days 17    
Moisture  
Dew Point 44 °F    
Average Humidity 80    
Maximum Humidity 88    
Minimum Humidity 63    
Precipitation  
Precipitation 0.00 in - - ()
Sea Level Pressure  
Sea Level Pressure 30.31 in    
Wind  
Wind Speed 2 mph (SSW)    
Max Wind Speed 10 mph    
Max Gust Speed -    
Visibility 10 miles    
Events      
Averages and records for this station are not official NWS values.
T = Trace of Precipitation, MM = Missing Value Source: NWS Daily Summary

Daily Weather History Graph

Daily Weather History Graph

Search for Another Location

Airport or City:

Astronomy

Oct. 13, 2014 Rise Set
Actual Time 7:02 AM EDT 6:14 PM EDT
Civil Twilight 6:34 AM EDT 6:42 PM EDT
Nautical Twilight 6:02 AM EDT 7:14 PM EDT
Astronomical Twilight 5:30 AM EDT 7:46 PM EDT
Moon 10:20 PM EDT (10/13) 12:16 PM EDT (10/13)
Length of Visible Light 12h 08m
Length of Day
11h 12m
Waning Gibbous, 70% of the Moon is Illuminated
Oct 13
Waning Gibbous
Oct 15
Last Quarter
Oct 23
New
Oct 30
First Quarter
Nov 6
Full

Hourly Weather History & Observations

Time (EDT) Temp. Windchill Dew Point Humidity Pressure Visibility Wind Dir Wind Speed Gust Speed Precip Events Conditions
12:15 AM 42.8 °F - 35.6 °F 76% 30.33 in 10.0 mi Calm Calm - N/A   Clear
12:35 AM 41.0 °F 39.0 °F 33.8 °F 76% 30.32 in 10.0 mi North 3.5 mph - N/A   Clear
12:55 AM 39.2 °F - 33.8 °F 81% 30.32 in 10.0 mi Calm Calm - N/A   Clear
1:15 AM 39.2 °F - 33.8 °F 81% 30.33 in 10.0 mi Calm Calm - N/A   Clear
1:35 AM 39.2 °F - 33.8 °F 81% 30.34 in 10.0 mi Calm Calm - N/A   Clear
1:55 AM 39.2 °F - 33.8 °F 81% 30.33 in 10.0 mi Calm Calm - N/A   Clear
2:15 AM 39.2 °F - 33.8 °F 81% 30.33 in 10.0 mi Calm Calm - N/A   Clear
2:35 AM 37.4 °F - 33.8 °F 87% 30.33 in 10.0 mi Calm Calm - N/A   Clear
2:55 AM 37.4 °F - 33.8 °F 87% 30.33 in 10.0 mi Calm Calm - N/A   Clear
3:15 AM 37.4 °F - 32.0 °F 81% 30.34 in 10.0 mi Calm Calm - N/A   Clear
3:35 AM 39.2 °F - 33.8 °F 81% 30.33 in 10.0 mi Calm Calm - N/A   Clear
3:55 AM 41.0 °F - 35.6 °F 81% 30.33 in 10.0 mi Calm Calm - N/A   Clear
4:15 AM 42.8 °F - 37.4 °F 81% 30.33 in 10.0 mi Calm Calm - N/A   Clear
4:35 AM 42.8 °F - 37.4 °F 81% 30.33 in 10.0 mi Calm Calm - N/A   Partly Cloudy
4:55 AM 44.6 °F - 37.4 °F 76% 30.33 in 10.0 mi Calm Calm - N/A   Partly Cloudy
5:15 AM 42.8 °F - 37.4 °F 81% 30.34 in 10.0 mi Calm Calm - N/A   Partly Cloudy
5:35 AM 44.6 °F - 39.2 °F 81% 30.33 in 10.0 mi Calm Calm - N/A   Partly Cloudy
5:50 AM 44.6 °F - 39.2 °F 81% 30.34 in 10.0 mi Calm Calm - N/A   Scattered Clouds
6:45 AM 46.4 °F - 41.0 °F 81% 30.34 in 10.0 mi Calm Calm - N/A   Overcast
7:15 AM 46.4 °F - 42.8 °F 87% 30.34 in 10.0 mi Calm Calm - N/A   Overcast
7:45 AM 48.2 °F - 42.8 °F 82% 30.34 in 10.0 mi Calm Calm - N/A   Overcast
8:48 AM 51.8 °F - 44.6 °F 76% 30.35 in 10.0 mi Calm Calm - N/A   Overcast
9:45 AM 53.6 °F - 46.4 °F 77% 30.35 in 10.0 mi Calm Calm - N/A   Overcast
10:48 AM 55.4 °F - 44.6 °F 67% 30.34 in 10.0 mi Calm Calm - N/A   Overcast
11:50 AM 57.2 °F - 46.4 °F 67% 30.34 in 10.0 mi South 9.2 mph - N/A   Overcast
1:45 PM 59.0 °F - 48.2 °F 67% 30.30 in 10.0 mi South 8.1 mph - N/A   Overcast
2:50 PM 59.0 °F - 46.4 °F 63% 30.30 in 10.0 mi SSW 6.9 mph - N/A   Overcast
3:50 PM 59.0 °F - 48.2 °F 67% 30.29 in 10.0 mi SSW 6.9 mph - N/A   Overcast
4:50 PM 59.0 °F - 50.0 °F 72% 30.29 in 10.0 mi SSW 4.6 mph - N/A   Overcast
5:50 PM 59.0 °F - 51.8 °F 77% 30.28 in 10.0 mi SSW 10.4 mph - N/A   Overcast
6:18 PM 57.2 °F - 51.8 °F 82% 30.29 in 10.0 mi SSW 5.8 mph - N/A   Overcast
6:50 PM 57.2 °F - 51.8 °F 82% 30.29 in 10.0 mi SSW 5.8 mph - N/A   Overcast
7:50 PM 57.2 °F - 51.8 °F 82% 30.29 in 10.0 mi SSW 3.5 mph - N/A   Overcast
8:50 PM 57.2 °F - 51.8 °F 82% 30.29 in 10.0 mi SSW 3.5 mph - N/A   Overcast
8:55 PM 57.2 °F - 51.8 °F 82% 30.28 in 10.0 mi South 4.6 mph - N/A   Overcast
9:15 PM 57.2 °F - 51.8 °F 82% 30.28 in 10.0 mi South 6.9 mph - N/A   Overcast
9:35 PM 57.2 °F - 51.8 °F 82% 30.28 in 10.0 mi South 4.6 mph - N/A   Overcast
9:55 PM 57.2 °F - 53.6 °F 88% 30.27 in 10.0 mi South 5.8 mph - N/A   Overcast
10:15 PM 57.2 °F - 53.6 °F 88% 30.28 in 10.0 mi South 5.8 mph - N/A   Overcast
10:35 PM 57.2 °F - 53.6 °F 88% 30.27 in 10.0 mi South 4.6 mph - N/A   Overcast
10:55 PM 57.2 °F - 53.6 °F 88% 30.27 in 9.0 mi South 5.8 mph - N/A   Overcast
11:15 PM 57.2 °F - 53.6 °F 88% 30.26 in 9.0 mi South 6.9 mph - N/A   Overcast
11:35 PM 57.2 °F - 53.6 °F 88% 30.26 in 5.0 mi South 5.8 mph - N/A   Overcast
11:55 PM 59.0 °F - 53.6 °F 82% 30.25 in 5.0 mi South 8.1 mph - N/A   Overcast